This is the latest recevied weather packets stored in our database for station/object NR6G-12. If no packets are shown the sender has not sent any weather packets the latest 10 day(s).
| Time | Temp. | Humidity | Pressure | Rain* | Wind** | Luminosity | Snow |
|---|---|---|---|---|---|---|---|
| 1777694220 | 15.56° C | 65% | 1015.8 hPa | 0 mm | - | - | - |
| 1777693860 | 15.56° C | 65% | 1015.6 hPa | 0 mm | - | - | - |
| 1777693500 | 15.56° C | 64% | 1015.6 hPa | 0 mm | - | - | - |
| 1777693140 | 15.56° C | 64% | 1015.5 hPa | 0 mm | - | - | - |
| 1777692780 | 15.56° C | 63% | 1015.4 hPa | 0 mm | - | - | - |
| 1777692420 | 15.56° C | 63% | 1015.3 hPa | 0 mm | - | - | - |
| 1777692060 | 15.56° C | 63% | 1015.3 hPa | 0 mm | - | - | - |
| 1777691700 | 15.56° C | 63% | 1015.3 hPa | 0 mm | - | - | - |
| 1777691340 | 15.56° C | 63% | 1015.2 hPa | 0 mm | - | - | - |
| 1777690980 | 15.56° C | 64% | 1015.1 hPa | 0 mm | - | - | - |
| 1777690620 | 16.11° C | 66% | 1015.1 hPa | 0 mm | - | - | - |
| 1777690260 | 16.11° C | 65% | 1015.1 hPa | 0 mm | - | - | - |
| 1777689901 | 16.11° C | 65% | 1015.1 hPa | 0 mm | - | - | - |
| 1777689540 | 16.11° C | 64% | 1015.1 hPa | 0 mm | - | - | - |
| 1777689180 | 16.67° C | 64% | 1015.1 hPa | 0 mm | - | - | - |
| 1777687740 | 17.22° C | 61% | 1015 hPa | 0 mm | - | - | - |
| 1777674060 | 19.44° C | 58% | 1015.4 hPa | 0 mm | - | - | - |
| 1777672620 | 20° C | 58% | 1015.7 hPa | 0 mm | - | - | - |
| 1777672260 | 19.44° C | 61% | 1015.7 hPa | 0 mm | - | - | - |
| 1777671900 | 19.44° C | 61% | 1015.8 hPa | 0 mm | - | - | - |
| 1777670820 | 19.44° C | 61% | 1015.9 hPa | 0 mm | - | - | - |
| 1777670460 | 19.44° C | 61% | 1015.9 hPa | 0 mm | - | - | - |
| 1777670100 | 19.44° C | 61% | 1015.9 hPa | 0 mm | - | - | - |
| 1777669020 | 18.89° C | 59% | 1016.1 hPa | 0 mm | - | - | - |
| 1777668660 | 19.44° C | 60% | 1016 hPa | 0 mm | - | - | - |
* Rain latest hour (hover to see other rain measurements)
** Current wind speed in m/s (hover to see current wind gust speed)